Time,TemperatureF,DewpointF,PressureIn,WindDirection,WindDirectionDegrees,WindSpeedMPH,WindSpeedGustMPH,Humidity,HourlyPrecipIn,Conditions,Clouds,dailyrainin,SoftwareType,DateUTC
2013-10-30 00:13:00,34.0,32.0,29.78,North,1,3.0,-999.0,92,-99.99,,,-99.99,,2013-10-30 06:13:00,
2013-10-30 00:21:00,34.0,32.0,29.78,North,1,3.0,-999.0,91,-99.99,,,-99.99,,2013-10-30 06:21:00,
2013-10-30 00:42:00,34.0,32.0,29.78,North,1,3.0,-999.0,92,-99.99,,,-99.99,,2013-10-30 06:42:00,
2013-10-30 00:52:00,33.0,31.0,29.77,North,1,2.0,-999.0,91,-99.99,,,-99.99,,2013-10-30 06:52:00,
2013-10-30 01:11:00,33.0,31.0,29.78,North,1,3.0,-999.0,92,-99.99,,,-99.99,,2013-10-30 07:11:00,
2013-10-30 01:21:00,33.0,31.0,29.78,North,1,4.0,-999.0,92,-99.99,,,-99.99,,2013-10-30 07:21:00,
2013-10-30 01:42:00,32.0,30.0,29.78,North,1,2.0,-999.0,92,-99.99,,,-99.99,,2013-10-30 07:42:00,
2013-10-30 01:52:00,32.0,30.0,29.77,North,1,1.0,-999.0,92,-99.99,,,-99.99,,2013-10-30 07:52:00,
2013-10-30 02:11:00,32.0,30.0,29.77,North,1,1.0,-999.0,92,-99.99,,,-99.99,,2013-10-30 08:11:00,
2013-10-30 02:21:00,32.0,30.0,29.78,North,1,0.0,-999.0,93,-99.99,,,-99.99,,2013-10-30 08:21:00,
2013-10-30 02:42:00,33.0,31.0,29.77,North,1,2.0,-999.0,92,-99.99,,,-99.99,,2013-10-30 08:42:00,
2013-10-30 02:52:00,33.0,31.0,29.75,North,1,1.0,-999.0,92,-99.99,,,-99.99,,2013-10-30 08:52:00,
2013-10-30 03:11:00,31.0,29.0,29.77,North,1,0.0,-999.0,92,-99.99,,,-99.99,,2013-10-30 09:11:00,
2013-10-30 03:21:00,31.0,29.0,29.77,North,1,3.0,-999.0,92,-99.99,,,-99.99,,2013-10-30 09:21:00,
2013-10-30 03:42:00,32.0,30.0,29.78,North,1,1.0,-999.0,92,-99.99,,,-99.99,,2013-10-30 09:42:00,
2013-10-30 03:54:00,32.0,30.0,29.80,North,1,0.0,-999.0,92,-99.99,,,-99.99,,2013-10-30 09:54:00,
2013-10-30 04:12:00,31.0,29.0,29.80,North,1,1.0,-999.0,92,-99.99,,,-99.99,,2013-10-30 10:12:00,
2013-10-30 04:23:00,30.0,28.0,29.80,North,1,2.0,-999.0,92,-99.99,,,-99.99,,2013-10-30 10:23:00,
2013-10-30 04:43:00,31.0,29.0,29.80,North,1,2.0,-999.0,92,-99.99,,,-99.99,,2013-10-30 10:43:00,
2013-10-30 04:53:00,31.0,29.0,29.82,North,1,0.0,-999.0,92,-99.99,,,-99.99,,2013-10-30 10:53:00,
2013-10-30 05:12:00,31.0,29.0,29.82,North,1,2.0,-999.0,92,-99.99,,,-99.99,,2013-10-30 11:12:00,
2013-10-30 05:22:00,31.0,29.0,29.82,NNE,25,3.0,-999.0,92,-99.99,,,-99.99,,2013-10-30 11:22:00,
2013-10-30 05:42:00,30.0,28.0,29.82,NNE,27,3.0,-999.0,92,-99.99,,,-99.99,,2013-10-30 11:42:00,
2013-10-30 05:52:00,30.0,28.0,29.83,NNE,27,4.0,-999.0,92,-99.99,,,-99.99,,2013-10-30 11:52:00,
2013-10-30 06:12:00,31.0,29.0,29.84,NNE,27,3.0,-999.0,92,-99.99,,,-99.99,,2013-10-30 12:12:00,
2013-10-30 06:22:00,31.0,29.0,29.84,NNE,27,2.0,-999.0,92,-99.99,,,-99.99,,2013-10-30 12:22:00,
2013-10-30 06:42:00,31.0,29.0,29.84,NNE,27,3.0,-999.0,92,-99.99,,,-99.99,,2013-10-30 12:42:00,
2013-10-30 06:52:00,31.0,29.0,29.85,NNE,27,3.0,-999.0,92,-99.99,,,-99.99,,2013-10-30 12:52:00,
2013-10-30 07:11:00,31.0,29.0,29.84,NNE,27,3.0,-999.0,92,-99.99,,,-99.99,,2013-10-30 13:11:00,
2013-10-30 07:22:00,31.0,29.0,29.84,NNE,27,2.0,-999.0,92,-99.99,,,-99.99,,2013-10-30 13:22:00,
2013-10-30 07:42:00,31.0,29.0,29.84,NNE,27,2.0,-999.0,92,-99.99,,,-99.99,,2013-10-30 13:42:00,
2013-10-30 07:52:00,31.0,29.0,29.87,NNE,27,1.0,-999.0,92,-99.99,,,-99.99,,2013-10-30 13:52:00,
2013-10-30 08:11:00,31.0,29.0,29.87,NNE,27,1.0,-999.0,92,-99.99,,,-99.99,,2013-10-30 14:11:00,
2013-10-30 08:21:00,31.0,29.0,29.87,NNE,27,1.0,-999.0,92,-99.99,,,-99.99,,2013-10-30 14:21:00,
2013-10-30 08:42:00,32.0,30.0,29.87,NNE,27,1.0,-999.0,92,-99.99,,,-99.99,,2013-10-30 14:42:00,
2013-10-30 08:52:00,33.0,31.0,29.91,NNE,27,2.0,-999.0,92,-99.99,,,-99.99,,2013-10-30 14:52:00,
2013-10-30 09:11:00,34.0,32.0,29.91,NNE,25,2.0,-999.0,93,-99.99,,,-99.99,,2013-10-30 15:11:00,
2013-10-30 09:22:00,35.0,33.0,29.90,NNE,25,0.0,-999.0,92,-99.99,,,-99.99,,2013-10-30 15:22:00,
2013-10-30 09:43:00,35.0,33.0,29.90,NNE,25,1.0,-999.0,92,-99.99,,,-99.99,,2013-10-30 15:43:00,
2013-10-30 09:54:00,35.0,33.0,29.91,NNE,25,1.0,-999.0,92,-99.99,,,-99.99,,2013-10-30 15:54:00,
2013-10-30 10:12:00,36.0,34.0,29.90,NNE,25,1.0,-999.0,92,-99.99,,,-99.99,,2013-10-30 16:12:00,
2013-10-30 10:23:00,38.0,36.0,29.90,NNE,24,1.0,-999.0,92,-99.99,,,-99.99,,2013-10-30 16:23:00,
2013-10-30 10:42:00,40.0,38.0,29.88,NNE,25,0.0,-999.0,92,-99.99,,,-99.99,,2013-10-30 16:42:00,
2013-10-30 10:53:00,42.0,39.0,29.87,East,96,4.0,-999.0,88,-99.99,,,-99.99,,2013-10-30 16:53:00,
2013-10-30 11:12:00,43.0,38.0,29.86,ESE,117,6.0,-999.0,83,-99.99,,,-99.99,,2013-10-30 17:12:00,
2013-10-30 11:22:00,45.0,39.0,29.84,East,93,5.0,-999.0,78,-99.99,,,-99.99,,2013-10-30 17:22:00,
2013-10-30 11:42:00,46.0,38.0,29.83,ENE,73,6.0,-999.0,73,-99.99,,,-99.99,,2013-10-30 17:42:00,
2013-10-30 11:52:00,48.0,36.0,29.83,East,85,4.0,-999.0,62,-99.99,,,-99.99,,2013-10-30 17:52:00,
2013-10-30 12:12:00,48.0,34.0,29.82,East,79,5.0,-999.0,58,-99.99,,,-99.99,,2013-10-30 18:12:00,
2013-10-30 12:21:00,49.0,34.0,29.81,SE,139,4.0,-999.0,55,-99.99,,,-99.99,,2013-10-30 18:21:00,
2013-10-30 12:42:00,49.0,32.0,29.80,ESE,117,5.0,-999.0,52,-99.99,,,-99.99,,2013-10-30 18:42:00,
2013-10-30 12:52:00,48.0,32.0,29.81,SSE,162,4.0,-999.0,53,-99.99,,,-99.99,,2013-10-30 18:52:00,
2013-10-30 13:11:00,47.0,30.0,29.80,SSE,153,3.0,-999.0,52,-99.99,,,-99.99,,2013-10-30 19:11:00,
2013-10-30 13:21:00,49.0,29.0,29.81,South,181,3.0,-999.0,46,-99.99,,,-99.99,,2013-10-30 19:21:00,
2013-10-30 13:42:00,49.0,26.0,29.79,SW,216,4.0,-999.0,41,-99.99,,,-99.99,,2013-10-30 19:42:00,
2013-10-30 13:52:00,49.0,26.0,29.78,SSW,208,3.0,-999.0,41,-99.99,,,-99.99,,2013-10-30 19:52:00,
2013-10-30 14:12:00,49.0,26.0,29.77,SW,215,2.0,-999.0,41,-99.99,,,-99.99,,2013-10-30 20:12:00,
2013-10-30 14:21:00,48.0,25.0,29.77,SSE,148,3.0,-999.0,41,-99.99,,,-99.99,,2013-10-30 20:21:00,
2013-10-30 14:42:00,47.0,26.0,29.78,SSW,202,2.0,-999.0,44,-99.99,,,-99.99,,2013-10-30 20:42:00,
2013-10-30 14:52:00,44.0,32.0,29.78,West,270,12.0,-999.0,63,-99.99,,,-99.99,,2013-10-30 20:52:00,
2013-10-30 15:12:00,41.0,33.0,29.81,West,281,13.0,-999.0,72,-99.99,,,-99.99,,2013-10-30 21:12:00,
2013-10-30 15:21:00,41.0,34.0,29.83,NW,304,6.0,-999.0,75,-99.99,,,-99.99,,2013-10-30 21:21:00,
2013-10-30 15:43:00,41.0,33.0,29.83,West,263,5.0,-999.0,74,-99.99,,,-99.99,,2013-10-30 21:43:00,
2013-10-30 15:53:00,41.0,33.0,29.84,WSW,257,4.0,-999.0,73,-99.99,,,-99.99,,2013-10-30 21:53:00,
2013-10-30 16:13:00,41.0,33.0,29.84,SW,230,7.0,-999.0,72,-99.99,,,-99.99,,2013-10-30 22:13:00,
2013-10-30 16:23:00,40.0,33.0,29.84,WSW,237,6.0,-999.0,75,-99.99,,,-99.99,,2013-10-30 22:23:00,
2013-10-30 16:43:00,40.0,33.0,29.84,SW,221,7.0,-999.0,76,-99.99,,,-99.99,,2013-10-30 22:43:00,
2013-10-30 16:53:00,39.0,33.0,29.85,WSW,250,5.0,-999.0,78,-99.99,,,-99.99,,2013-10-30 22:53:00,
2013-10-30 17:12:00,38.0,32.0,29.85,WSW,258,7.0,-999.0,80,-99.99,,,-99.99,,2013-10-30 23:12:00,
2013-10-30 17:22:00,37.0,33.0,29.85,WSW,248,6.0,-999.0,84,-99.99,,,-99.99,,2013-10-30 23:22:00,
2013-10-30 17:42:00,37.0,33.0,29.86,WSW,258,5.0,-999.0,86,-99.99,,,-99.99,,2013-10-30 23:42:00,
2013-10-30 17:53:00,37.0,34.0,29.86,WSW,253,4.0,-999.0,88,-99.99,,,-99.99,,2013-10-30 23:53:00,
2013-10-30 18:11:00,37.0,34.0,29.86,WSW,255,4.0,-999.0,88,-99.99,,,-99.99,,2013-10-31 00:11:00,
2013-10-30 18:21:00,37.0,34.0,29.86,West,259,3.0,-999.0,89,-99.99,,,-99.99,,2013-10-31 00:21:00,
2013-10-30 18:42:00,37.0,34.0,29.88,West,277,4.0,-999.0,89,-99.99,,,-99.99,,2013-10-31 00:42:00,
2013-10-30 18:52:00,37.0,34.0,29.88,West,277,3.0,-999.0,90,-99.99,,,-99.99,,2013-10-31 00:52:00,
2013-10-30 19:11:00,36.0,33.0,29.88,West,266,5.0,-999.0,90,-99.99,,,-99.99,,2013-10-31 01:11:00,
2013-10-30 19:22:00,36.0,33.0,29.88,West,259,4.0,-999.0,90,-99.99,,,-99.99,,2013-10-31 01:22:00,
2013-10-30 19:42:00,37.0,34.0,29.89,WSW,245,3.0,-999.0,90,-99.99,,,-99.99,,2013-10-31 01:42:00,
2013-10-30 19:52:00,36.0,33.0,29.90,WSW,256,5.0,-999.0,90,-99.99,,,-99.99,,2013-10-31 01:52:00,
2013-10-30 20:11:00,36.0,34.0,29.90,WSW,249,5.0,-999.0,91,-99.99,,,-99.99,,2013-10-31 02:11:00,
2013-10-30 20:21:00,36.0,34.0,29.91,WSW,255,4.0,-999.0,91,-99.99,,,-99.99,,2013-10-31 02:21:00,
2013-10-30 21:11:00,35.0,33.0,29.89,West,264,3.0,-999.0,92,-99.99,,,-99.99,,2013-10-31 03:11:00,
2013-10-30 21:21:00,34.0,32.0,29.89,West,266,4.0,-999.0,92,-99.99,,,-99.99,,2013-10-31 03:21:00,
2013-10-30 21:44:00,34.0,32.0,29.89,West,266,3.0,-999.0,92,-99.99,,,-99.99,,2013-10-31 03:44:00,
2013-10-30 21:55:00,34.0,32.0,29.86,WSW,252,4.0,-999.0,91,-99.99,,,-99.99,,2013-10-31 03:55:00,
2013-10-30 22:14:00,34.0,31.0,29.88,West,264,6.0,-999.0,90,-99.99,,,-99.99,,2013-10-31 04:14:00,
2013-10-30 22:23:00,34.0,31.0,29.88,West,268,6.0,-999.0,89,-99.99,,,-99.99,,2013-10-31 04:23:00,
2013-10-30 22:43:00,34.0,31.0,29.89,West,262,6.0,-999.0,88,-99.99,,,-99.99,,2013-10-31 04:43:00,
2013-10-30 22:54:00,34.0,31.0,29.85,West,264,8.0,-999.0,87,-99.99,,,-99.99,,2013-10-31 04:54:00,
2013-10-30 23:03:00,34.0,31.0,29.85,West,264,8.0,-999.0,87,-99.99,,,-99.99,,2013-10-31 05:03:00,
2013-10-30 23:13:00,34.0,31.0,29.85,West,264,8.0,-999.0,87,-99.99,,,-99.99,,2013-10-31 05:13:00,
2013-10-30 23:22:00,33.0,30.0,29.86,West,273,6.0,-999.0,87,-99.99,,,-99.99,,2013-10-31 05:22:00,
2013-10-30 23:43:00,33.0,30.0,29.86,West,259,7.0,-999.0,87,-99.99,,,-99.99,,2013-10-31 05:43:00,
2013-10-30 23:52:00,33.0,29.0,29.85,West,264,6.0,-999.0,86,-99.99,,,-99.99,,2013-10-31 05:52:00,